Weather History for Chicago Lansing, IL

Change the Weather History Date:

Tuesday, December 4, 2012

  Actual Average (KMDW) Record (KMDW)
Temperature  
Mean Temperature 52 °F 33 °F  
Max Temperature 61 °F 39 °F 68 °F (1998)
Min Temperature 41 °F 26 °F 3 °F (1991)
Degree Days  
Heating Degree Days 14 32  
Month to date heating degree days 126  
Since 1 July heating degree days 1261  
Cooling Degree Days 0 0  
Month to date cooling degree days 0  
Year to date cooling degree days 1045  
Growing Degree Days 2 (Base 50)    
Moisture  
Dew Point 37 °F    
Average Humidity 60    
Maximum Humidity 94    
Minimum Humidity 35    
Precipitation  
Precipitation 0.12 in 0.09 in 1.19 in (1973)
Month to date precipitation 0.39  
Year to date precipitation 36.91  
Sea Level Pressure  
Sea Level Pressure 30.09 in    
Wind  
Wind Speed 7 mph (WNW)    
Max Wind Speed 13 mph    
Max Gust Speed 23 mph    
Visibility 10 miles    
Events Rain    
T = Trace of Precipitation, MM = Missing Value Source: NWS Daily Summary

Daily Weather History Graph

Daily Weather History Graph

Search for Another Location

Airport:

Trip Planner

Search our weather history database for the weather conditions in past years. The results will help you decide how hot, cold, wet, or windy it might be!

Date:

Astronomy

Dec. 04, 2012 Rise Set
Actual Time 7:00 AM CST 4:20 PM CST
Civil Twilight 6:29 AM CST 4:51 PM CST
Nautical Twilight 5:55 AM CST 5:25 PM CST
Astronomical Twilight 5:21 AM CST 5:59 PM CST
Moon 10:10 PM CST (12/4) 10:52 AM CST (12/4)
Length of Visible Light 10h 21m
Length of Day
9h 19m
Waning Gibbous, 69% of the Moon is Illuminated
Dec 4
Waning Gibbous
Dec 6
Last Quarter
Dec 13
New
Dec 19
First Quarter
Dec 28
Full

Hourly Weather History & Observations

Time (CST) Temp. Windchill Dew Point Humidity Pressure Visibility Wind Dir Wind Speed Gust Speed Precip Events Conditions
12:15 AM 61.2 °F - 57.2 °F 87% 29.90 in 7.0 mi West 12.7 mph - N/A Rain Light Rain
12:35 AM 60.8 °F - 57.6 °F 89% 29.90 in 10.0 mi WSW 11.5 mph - N/A   Overcast
12:55 AM 60.3 °F - 57.4 °F 90% 29.90 in 7.0 mi WSW 10.4 mph - 0.01 in Rain Light Rain
1:15 AM 59.5 °F - 56.8 °F 91% 29.91 in 7.0 mi WSW 8.1 mph - 0.01 in Rain Rain
1:35 AM 58.1 °F - 55.6 °F 91% 29.92 in 5.0 mi West 11.5 mph - 0.03 in Rain Light Rain
1:55 AM 56.8 °F - 54.7 °F 92% 29.92 in 5.0 mi WNW 9.2 mph - 0.04 in Rain Light Rain
2:15 AM 55.6 °F - 52.9 °F 91% 29.94 in 5.0 mi West 5.8 mph - 0.03 in Rain Rain
2:35 AM 54.7 °F - 52.7 °F 93% 29.94 in 5.0 mi WNW 3.5 mph - 0.04 in Rain Light Rain
2:55 AM 54.5 °F - 52.9 °F 94% 29.94 in 5.0 mi Calm Calm - 0.04 in   Overcast
3:15 AM 54.9 °F - 52.3 °F 91% 29.94 in 7.0 mi NNW 3.5 mph - N/A Rain Light Rain
3:35 AM 54.3 °F - 49.6 °F 84% 29.95 in 10.0 mi NNE 9.2 mph - N/A Rain Light Rain
3:55 AM 51.8 °F - 45.9 °F 80% 29.97 in 10.0 mi NNE 3.5 mph - 0.01 in Rain Light Rain
4:15 AM 51.4 °F - 46.4 °F 83% 29.99 in 10.0 mi Calm Calm - N/A Rain Light Rain
4:35 AM 51.1 °F - 46.8 °F 85% 30.00 in 10.0 mi Calm Calm - 0.01 in Rain Rain
4:55 AM 51.8 °F - 46.4 °F 82% 30.01 in 10.0 mi North 3.5 mph - N/A Rain Light Rain
5:15 AM 50.4 °F - 45.9 °F 85% 30.02 in 10.0 mi North 3.5 mph - N/A   Overcast
5:35 AM 50.5 °F - 45.1 °F 82% 30.03 in 10.0 mi North 4.6 mph - N/A Rain Light Rain
5:55 AM 51.8 °F - 39.2 °F 62% 30.03 in 10.0 mi NNW 4.6 mph - N/A Rain Light Rain
6:15 AM 50.5 °F - 37.6 °F 61% 30.03 in 10.0 mi North 3.5 mph - N/A   Overcast
6:35 AM 50.5 °F - 36.7 °F 59% 30.04 in 10.0 mi North 4.6 mph - N/A   Overcast
6:55 AM 50.2 °F - 36.9 °F 60% 30.04 in 10.0 mi NNW 3.5 mph - N/A   Overcast
7:15 AM 50.0 °F - 37.8 °F 63% 30.04 in 10.0 mi NW 4.6 mph - N/A   Overcast
7:35 AM 49.5 °F - 37.8 °F 64% 30.05 in 10.0 mi WNW 4.6 mph - N/A   Scattered Clouds
7:55 AM 49.6 °F - 37.6 °F 63% 30.06 in 10.0 mi Calm Calm - N/A   Scattered Clouds
8:15 AM 49.6 °F - 37.0 °F 62% 30.07 in 10.0 mi NW 3.5 mph - N/A   Clear
8:35 AM 50.0 °F - 36.7 °F 60% 30.08 in 10.0 mi NW 5.8 mph - N/A   Clear
8:55 AM 50.2 °F - 36.0 °F 58% 30.08 in 10.0 mi NNW 4.6 mph - 0.01 in   Clear
9:15 AM 50.9 °F - 35.1 °F 55% 30.09 in 10.0 mi NW 4.6 mph - N/A   Clear
9:35 AM 51.6 °F - 36.5 °F 56% 30.10 in 10.0 mi WNW 4.6 mph - N/A   Clear
9:55 AM 51.8 °F - 35.2 °F 53% 30.10 in 10.0 mi WNW 4.6 mph - N/A   Clear
10:15 AM 52.9 °F - 33.8 °F 48% 30.11 in 10.0 mi NW 5.8 mph - N/A   Clear
10:35 AM 53.4 °F - 33.1 °F 46% 30.10 in 10.0 mi WNW 4.6 mph - N/A   Clear
10:55 AM 55.6 °F - 33.6 °F 44% 30.10 in 10.0 mi NW 5.8 mph - N/A   Clear
11:15 AM 55.4 °F - 31.6 °F 40% 30.10 in 10.0 mi NW 6.9 mph - N/A   Clear
11:35 AM 57.0 °F - 30.9 °F 37% 30.09 in 10.0 mi NNW 12.7 mph 16.1 mph N/A   Clear
11:55 AM 55.4 °F - 30.0 °F 38% 30.10 in 10.0 mi NNW 11.5 mph 17.3 mph N/A   Clear
12:15 PM 56.5 °F - 29.7 °F 36% 30.09 in 10.0 mi NW 11.5 mph - N/A   Clear
12:35 PM 55.6 °F - 29.7 °F 37% 30.09 in 10.0 mi NW 11.5 mph 21.9 mph N/A   Clear
12:55 PM 55.4 °F - 30.4 °F 38% 30.09 in 10.0 mi NW 10.4 mph 20.7 mph N/A   Clear
1:15 PM 55.6 °F - 30.7 °F 39% 30.09 in 10.0 mi NW 8.1 mph - N/A   Clear
1:35 PM 56.3 °F - 30.4 °F 37% 30.08 in 10.0 mi WNW 9.2 mph - N/A   Clear
1:55 PM 56.3 °F - 30.6 °F 38% 30.09 in 10.0 mi WNW 10.4 mph 18.4 mph N/A   Clear
2:15 PM 56.7 °F - 30.2 °F 37% 30.09 in 10.0 mi WNW 10.4 mph 17.3 mph N/A   Clear
2:35 PM 56.3 °F - 29.1 °F 35% 30.09 in 10.0 mi WNW 12.7 mph 18.4 mph N/A   Clear
2:55 PM 56.5 °F - 30.0 °F 36% 30.09 in 10.0 mi WNW 9.2 mph 23.0 mph N/A   Clear
3:15 PM 55.6 °F - 29.7 °F 37% 30.10 in 10.0 mi WNW 11.5 mph 20.7 mph N/A   Clear
3:35 PM 55.6 °F - 30.6 °F 39% 30.11 in 10.0 mi West 9.2 mph - N/A   Clear
3:55 PM 55.2 °F - 29.3 °F 37% 30.11 in 10.0 mi West 9.2 mph 16.1 mph N/A   Clear
4:15 PM 53.6 °F - 29.8 °F 40% 30.12 in 10.0 mi West 8.1 mph - N/A   Clear
4:35 PM 51.4 °F - 30.4 °F 44% 30.13 in 10.0 mi West 6.9 mph - N/A   Clear
4:55 PM 48.9 °F - 31.5 °F 51% 30.13 in 10.0 mi West 8.1 mph - N/A   Clear
5:15 PM 48.7 °F - 31.1 °F 51% 30.13 in 10.0 mi West 5.8 mph - N/A   Clear
5:35 PM 47.8 °F - 31.5 °F 53% 30.14 in 10.0 mi West 5.8 mph - N/A   Clear
5:55 PM 47.8 °F - 31.6 °F 53% 30.15 in 10.0 mi West 5.8 mph - N/A   Clear
6:15 PM 46.9 °F - 32.0 °F 56% 30.16 in 10.0 mi West 8.1 mph - N/A   Clear
6:35 PM 46.2 °F 44.1 °F 32.0 °F 58% 30.16 in 10.0 mi West 4.6 mph - N/A   Clear
6:55 PM 45.5 °F 41.8 °F 31.6 °F 58% 30.16 in 10.0 mi West 6.9 mph - N/A   Clear
7:15 PM 45.7 °F 42.0 °F 31.6 °F 58% 30.17 in 10.0 mi West 6.9 mph - N/A   Clear
7:35 PM 45.1 °F 40.8 °F 31.6 °F 59% 30.17 in 10.0 mi West 8.1 mph - N/A   Clear
7:55 PM 48.2 °F - 32.0 °F 54% 30.17 in 10.0 mi West 9.2 mph - N/A   Clear
8:15 PM 46.2 °F 42.2 °F 31.3 °F 56% 30.18 in 10.0 mi West 8.1 mph - N/A   Clear
8:35 PM 44.6 °F 41.4 °F 31.3 °F 60% 30.19 in 10.0 mi West 5.8 mph - N/A   Clear
8:55 PM 43.9 °F 39.9 °F 31.1 °F 61% 30.20 in 10.0 mi West 6.9 mph - N/A   Clear
9:15 PM 45.1 °F 40.3 °F 31.1 °F 58% 30.20 in 10.0 mi NW 9.2 mph - N/A   Clear
9:35 PM 45.9 °F 41.2 °F 30.9 °F 56% 30.20 in 10.0 mi NW 9.2 mph - N/A   Clear
9:55 PM 44.6 °F 41.4 °F 32.0 °F 61% 30.21 in 10.0 mi WNW 5.8 mph - N/A   Clear
10:15 PM 44.2 °F 41.0 °F 30.7 °F 59% 30.22 in 10.0 mi WNW 5.8 mph - N/A   Clear
10:35 PM 44.4 °F 40.0 °F 30.2 °F 57% 30.23 in 10.0 mi NW 8.1 mph - N/A   Clear
10:55 PM 44.1 °F 40.1 °F 30.2 °F 58% 30.24 in 10.0 mi NW 6.9 mph - N/A   Clear
11:15 PM 43.2 °F 39.7 °F 30.0 °F 60% 30.25 in 10.0 mi NW 5.8 mph - N/A   Clear
11:35 PM 42.3 °F 39.4 °F 30.0 °F 62% 30.26 in 10.0 mi NNE 4.6 mph - N/A   Clear
11:55 PM 41.9 °F 36.9 °F 28.9 °F 60% 30.26 in 10.0 mi North 8.1 mph - N/A   Clear